Regional Weather Roundup
Issued by NWS

Home | Current Version | Previous Version | Text Only | Print | Product List | Glossary Off
Versions: 1 2 3 4 5 6 7 8 9 10 11 12 13 14 15 16 17 18 19 20 21 22 23 24 25 26 27 28 29 30 31 32 33 34 35 36 37 38 39 40 41 42 43 44 45 46 47 48 49 50

000
ASUS43 KFSD 010310
RWRSD

WEATHER ROUNDUP FOR SOUTH DAKOTA
NATIONAL WEATHER SERVICE SIOUX FALLS SD
1000 PM CDT TUE SEP 30 2014

NOTE: "FAIR" INDICATES FEW OR NO CLOUDS BELOW 12,000 FEET WITH NO
SIGNIFICANT WEATHER AND/OR OBSTRUCTIONS TO VISIBILITY.


SDZ001>005-009-010-012>017-010400-
NORTHWEST AND NORTH CENTRAL SOUTH DAKOTA

CITY           SKY/WX    TMP DP  RH WIND       PRES   REMARKS
BUFFALO          N/A     54  51  90 W15       29.54R
FAITH            N/A     56  51  84 W15       29.59R
MOBRIDGE       CLOUDY    61  52  72 SW18G29   29.49R
$$

SDZ012>016-024>037-041>051-057-063-072>074-010400-
SOUTHWEST AND SOUTH CENTRAL SOUTH DAKOTA

CITY           SKY/WX    TMP DP  RH WIND       PRES   REMARKS
RAPID CTY ARPT MOCLDY    54  44  69 W3        29.68R
PIERRE         CLEAR     60  49  66 SW9       29.60R
CUSTER         CLOUDY    49  40  71 W8        29.77R
ELLSWORTH AFB  MOCLDY    57  46  66 W8        29.68R
PHILIP         CLEAR     55  48  77 W5        29.64R
PINE RIDGE     CLOUDY    54  50  86 W3        29.72R
WINNER         FAIR      59  47  64 S8        29.67R
$$

SDZ004>011-016>023-039-040-010400-
NORTHEAST SOUTH DAKOTA

CITY           SKY/WX    TMP DP  RH WIND       PRES   REMARKS
ABERDEEN       CLOUDY    67  53  61 S13G22    29.57R
WATERTOWN      CLOUDY    63  59  87 S24G38    29.67R
SISSETON         N/A     60  58  92 S16G25    29.63S
$$

SDZ017-020-022-023-036>040-048>070-010400-
SOUTHEAST SOUTH DAKOTA

CITY           SKY/WX    TMP DP  RH WIND       PRES   REMARKS
SIOUX FALLS    CLOUDY    64  60  87 S20       29.76R
HURON          CLEAR     65  49  56 S10       29.66R
CHAMBERLAIN    CLEAR     54  49  83 SE3       29.66R
MITCHELL       PTCLDY    65  60  84 S16       29.69R
YANKTON        CLOUDY    64  61  88 SE16      29.74R
$$

ABBREVIATIONS USED IN REMARKS
   TC - TEMPERATURE IN CELSIUS
  WCI - WIND CHILL INDEX
   HX - HEAT INDEX
  VSB - VISIBILITY



USA.gov is the U.S. government's official web portal to all federal, state and local government web resources and services.